RORVIK / RYUM current weather conditions

sailwx.info

Wind from 090 at 5 knots

Air temperature 1.0° C
Visibility: greater than 5.4 NM
Dewpoint -0.0° C

Last reported at 2014-Dec-20 09:50 UTC.
Time now 2014-Dec-20 21:33 UTC

Location: N 64°50' E 011°09'.
View on Google Maps.

See reports from other nearby stations

  
Tides and Currents Weather Stations Pressure Air Temp Water Temp Dewpoint Dewpoint Depression Visibility Wind Speed Wind Dir Waves Ship Positions
date/time (UTC)wind fromknots sea level pressurealtimeterstation pressurevisibilityair tempwater tempwave heightnotes
2014-Dec-20 09:50 090 5 5.4 1.0
2014-Dec-20 08:50 5.4-0.0 Light snow showers.
2014-Dec-20 08:20 5.4-0.0 Light snow showers.
2014-Dec-20 07:50 5.4-0.0 Showers in the vicinity.
2014-Dec-20 07:20 5.4-1.0 Showers in the vicinity.
2014-Dec-20 06:50 5.4-0.0 Light snow showers.
2014-Dec-20 06:20 5.4-0.0 Light snow showers.
2014-Dec-19 21:20 170 6 3.8 1.0 Light snow showers.
2014-Dec-19 20:50 160 10 3.2 1.0 Light snow showers.
2014-Dec-19 19:50 140 7 2.7-0.0 Light snow showers.
2014-Dec-19 18:50 150 7 2.7-0.0 Light snow showers.
2014-Dec-19 17:50 140 6 2.7-0.0 Light snow showers.
2014-Dec-19 17:20 140 8 3.2-0.0 Light snow showers.
2014-Dec-19 16:20 160 9 1.3-0.0 Light snow showers.
2014-Dec-19 15:50 150 7 3.8-0.0 Light snow showers.
2014-Dec-19 15:20 150 8 3.8-0.0 Light snow showers.
2014-Dec-19 14:50 130 9 4.9-0.0 Light snow showers.
2014-Dec-19 14:20 140 9 0.8-0.0 Snow showers.
2014-Dec-19 13:50 140 8 4.9-0.0 Light snow.
2014-Dec-19 12:50 130 7 0.8-0.0 Snow showers.
2014-Dec-19 12:20 130 10 5.4-0.0 Showers in the vicinity.
2014-Dec-19 11:50 130 9 5.4-0.0 Showers in the vicinity.
2014-Dec-19 10:20 130 10 5.4-0.0 Showers in the vicinity.
2014-Dec-19 09:50 130 10 5.4-0.0 Showers in the vicinity.
2014-Dec-19 08:50 130 11 1.6-1.0 Light snow showers.
2014-Dec-19 08:20 140 12 1.6-0.0 Light snow showers.
2014-Dec-19 07:50 150 12 2.7-0.0 Light snow showers.
2014-Dec-19 07:20 160 12 5.4 1.0
2014-Dec-19 06:50 120 9 5.4 1.0
2014-Dec-19 06:20 130 6 5.4 1.0
2014-Dec-19 05:50 130 8 5.4 1.0
2014-Dec-19 04:50 130 9 5.4 1.0
2014-Dec-18 21:20 140 14 5.4 1.0